Location: ???????
(55.3754°N, 39.3545°E)
Time: 10:46:45
(UTC+00:00)

Meteor 1-20 Rocket - Pass Details

Date: 14 April 2026
Orbit: 818 x 890 km, 81.2° (Epoch: 19 May)

Event Time Altitude Azimuth Distance (km) Brightness Sun altitude
Rises 22:01:25 0° 345° (NNW) 3,376 8.4 -24.5°
Reaches altitude 10° 22:03:51 10° 347° (NNW) 2,433 7.5 -24.4°
Maximum altitude 22:09:21 77° 74° (ENE) 845 4.1 -24.2°
Enters shadow 22:10:36 54° 146° (SSE) 992 4.2 -24.2°
